Location: Bernay
(48.6766°N, 2.9386°E)
Time: 23:30:05
(UTC+00:00)

SL-4 R/B - Visible Passes

Search period start: 18 April 2026 00:00
Search period end: 28 April 2026 00:00
Orbit: 381 x 508 km, 51.6° (Epoch: 18 April)

Date Brightness Start Highest point End Pass type
(mag) Time Alt. Az. Time Alt. Az. Time Alt. Az.
18 Apr 4.3 00:54:48 18° ENE 00:54:48 18° ENE 00:55:56 10° ENE visible
18 Apr 2.3 02:28:15 32° WNW 02:29:48 59° N 02:33:36 10° E visible
18 Apr 1.9 04:03:28 10° WNW 04:07:16 56° SSW 04:10:56 10° SE visible
19 Apr 2.4 01:50:20 56° N 01:50:20 56° N 01:54:05 10° E visible
19 Apr 1.7 03:23:57 10° WNW 03:27:50 69° SSW 03:31:34 10° ESE visible
20 Apr 3.6 01:12:33 27° ENE 01:12:33 27° ENE 01:14:31 10° E visible
20 Apr 1.7 02:46:03 23° WNW 02:48:20 84° SSW 02:52:08 10° ESE visible
21 Apr 1.8 02:08:34 76° NW 02:08:48 83° NNE 02:12:39 10° ESE visible
21 Apr 2.7 03:42:37 10° W 03:45:57 28° SW 03:49:11 10° SSE visible
22 Apr 3.7 01:31:35 23° E 01:31:35 23° E 01:33:06 10° ESE visible
22 Apr 2.3 03:05:08 26° WSW 03:06:31 35° SW 03:09:59 10° SSE visible
22 Apr 3.4 19:55:13 10° S 19:57:34 16° SE 19:57:36 16° SE visible
22 Apr 4.1 21:30:34 10° SW 21:31:16 15° SW 21:31:16 15° SW visible
23 Apr 3.3 02:29:01 23° SSE 02:29:01 23° SSE 02:30:41 10° SE visible
23 Apr 1.9 20:51:07 10° SW 20:54:51 52° SSE 20:55:45 42° ESE visible
23 Apr 4.2 22:28:26 10° W 22:29:21 16° W 22:29:21 16° W visible
24 Apr 2.2 20:11:44 10° SW 20:15:20 41° SSE 20:19:02 10° ENE visible
24 Apr 2.1 21:48:48 10° W 21:52:40 68° NNW 21:52:49 67° N visible
25 Apr 2.6 19:32:24 10° SSW 19:35:49 32° SE 19:39:20 10° E visible
25 Apr 1.9 21:09:10 10° WSW 21:13:02 77° NNW 21:15:34 21° ENE visible
25 Apr 3.5 22:46:53 10° WNW 22:49:04 30° WNW 22:49:04 30° WNW visible
26 Apr 1.8 20:29:33 10° WSW 20:33:23 89° NNW 20:37:20 10° ENE visible
26 Apr 2.5 22:07:12 10° W 22:11:02 54° N 22:11:22 52° NNE visible
26 Apr 4.7 23:44:46 10° WNW 23:44:50 10° WNW 23:44:50 10° WNW visible
27 Apr 1.7 19:49:58 10° WSW 19:53:45 78° SSE 19:57:39 10° ENE visible
27 Apr 2.5 21:27:31 10° W 21:31:20 55° N 21:33:24 25° ENE visible
27 Apr 3.7 23:05:08 10° WNW 23:06:52 25° WNW 23:06:52 25° WNW visible
